Location: Austin
(30.3000°N, 97.7500°W)
Time: 10:38:51
(UTC-05:00)

Envisat - Pass Details

Date: 03 April 2024
Orbit: 762 x 764 km, 98.3° (Epoch: 22 April)

Event Time Altitude Azimuth Distance (km) Brightness Sun altitude
Rises 04:42:26 0° 13° (NNE) 3,228 6.8 -32.4°
Reaches altitude 10° 04:44:45 10° 14° (NNE) 2,299 5.9 -32.0°
Enters shadow 04:48:10 44° 21° (NNE) 1,053 3.9 -31.4°
